Location: Newark
(38.0892°N, 27.7378°E)
Time: 15:34:29
(UTC+00:00)

N. Korean satellite - Pass Details

Date: 11 December 2019
Orbit: 454 x 508 km, 97.2° (Epoch: 17 January)

Event Time Altitude Azimuth Distance (km) Brightness Sun altitude
Rises 03:03:06 0° 32° (NNE) 2,527 10.5 -25.1°
Reaches altitude 10° 03:05:55 10° 57° (ENE) 1,632 9.8 -24.6°
Maximum altitude 03:07:57 15° 93° (E) 1,356 9.8 -24.2°
Drops below altitude 10° 03:09:57 10° 129° (SE) 1,608 10.0 -23.8°
Sets 03:12:41 0° 154° (SSE) 2,468 10.7 -23.3°
